date,time,SUV Intensity [MED/Hr],UV Index,Daily total [MED],Since Last [MED]
19/09/2022,00:00:48,-0.000,0.0,0.0,0.0
19/09/2022,00:01:48,-0.000,0.0,0.0,0.0
19/09/2022,00:02:48,0.000,0.0,0.0,0.0
19/09/2022,00:03:48,0.000,0.0,0.0,0.0
19/09/2022,00:04:48,0.000,0.0,0.0,0.0
19/09/2022,00:05:48,0.000,0.0,0.0,0.0
19/09/2022,00:06:48,0.000,0.0,0.0,0.0
19/09/2022,00:07:49,-0.000,0.0,0.0,0.0
19/09/2022,00:08:48,-0.001,0.0,0.0,0.0
19/09/2022,00:09:48,0.000,0.0,0.0,0.0
19/09/2022,00:10:48,0.000,0.0,0.0,0.0
19/09/2022,00:11:48,0.000,0.0,0.0,0.0
19/09/2022,00:12:48,-0.001,0.0,0.0,0.0
19/09/2022,00:13:49,0.000,0.0,0.0,0.0
19/09/2022,00:14:48,-0.001,0.0,0.0,0.0
19/09/2022,00:15:48,0.000,0.0,0.0,0.0
19/09/2022,00:16:48,-0.001,0.0,0.0,0.0
19/09/2022,00:17:48,0.000,0.0,0.0,0.0
19/09/2022,00:18:48,0.000,0.0,0.0,0.0
19/09/2022,00:19:48,-0.001,0.0,0.0,0.0
19/09/2022,00:20:49,0.000,0.0,0.0,0.0
19/09/2022,00:21:48,-0.000,0.0,0.0,0.0
19/09/2022,00:22:48,-0.001,0.0,0.0,0.0
19/09/2022,00:23:48,-0.000,0.0,0.0,0.0
19/09/2022,00:24:48,0.000,0.0,0.0,0.0
19/09/2022,00:25:41,0.000,0.0,0.0,0.0
19/09/2022,00:26:49,-0.001,0.0,0.0,0.0
19/09/2022,00:27:48,0.000,0.0,0.0,0.0
19/09/2022,00:28:56,0.001,0.0,0.0,0.0
19/09/2022,00:29:48,-0.000,0.0,0.0,0.0
19/09/2022,00:30:48,0.001,0.0,0.0,0.0
19/09/2022,00:31:48,0.000,0.0,0.0,0.0
19/09/2022,00:32:48,0.000,0.0,0.0,0.0
19/09/2022,00:33:49,0.000,0.0,0.0,0.0
19/09/2022,00:34:48,0.000,0.0,0.0,0.0
19/09/2022,00:35:48,0.000,0.0,0.0,0.0
19/09/2022,00:36:48,0.000,0.0,0.0,0.0
19/09/2022,00:37:48,0.000,0.0,0.0,0.0
19/09/2022,00:38:57,-0.000,0.0,0.0,0.0
19/09/2022,00:39:48,0.000,0.0,0.0,0.0
19/09/2022,00:40:48,0.000,0.0,0.0,0.0
19/09/2022,00:41:56,0.000,0.0,0.0,0.0
19/09/2022,00:42:49,-0.001,0.0,0.0,0.0
19/09/2022,00:43:48,0.001,0.0,0.0,0.0
19/09/2022,00:44:48,0.000,0.0,0.0,0.0
19/09/2022,00:45:49,0.000,0.0,0.0,0.0
19/09/2022,00:46:48,-0.000,0.0,0.0,0.0
19/09/2022,00:47:48,0.000,0.0,0.0,0.0
19/09/2022,00:48:48,0.000,0.0,0.0,0.0
19/09/2022,00:49:48,0.000,0.0,0.0,0.0
19/09/2022,00:50:49,0.000,0.0,0.0,0.0
19/09/2022,00:51:57,0.000,0.0,0.0,0.0
19/09/2022,00:52:48,0.000,0.0,0.0,0.0
19/09/2022,00:53:48,0.000,0.0,0.0,0.0
19/09/2022,00:54:49,0.000,0.0,0.0,0.0
19/09/2022,00:55:48,-0.001,0.0,0.0,0.0
19/09/2022,00:56:48,0.000,0.0,0.0,0.0
19/09/2022,00:57:48,0.000,0.0,0.0,0.0
19/09/2022,00:58:48,0.000,0.0,0.0,0.0
19/09/2022,00:59:48,0.000,0.0,0.0,0.0
19/09/2022,01:00:49,0.001,0.0,0.0,0.0
19/09/2022,01:01:48,0.000,0.0,0.0,0.0
19/09/2022,01:02:48,0.001,0.0,0.0,0.0
19/09/2022,01:03:48,0.001,0.0,0.0,0.0
19/09/2022,01:04:48,0.000,0.0,0.0,0.0
19/09/2022,01:05:48,0.000,0.0,0.0,0.0
19/09/2022,01:06:48,0.001,0.0,0.0,0.0
19/09/2022,01:07:48,0.001,0.0,0.0,0.0
19/09/2022,01:08:48,0.000,0.0,0.0,0.0
19/09/2022,01:09:48,0.001,0.0,0.0,0.0
19/09/2022,01:10:48,-0.001,0.0,0.0,0.0
19/09/2022,01:11:48,-0.000,0.0,0.0,0.0
19/09/2022,01:12:56,-0.000,0.0,0.0,0.0
19/09/2022,01:13:48,0.000,0.0,0.0,0.0
19/09/2022,01:14:49,-0.001,0.0,0.0,0.0
19/09/2022,01:15:49,0.001,0.0,0.0,0.0
19/09/2022,01:16:48,-0.001,0.0,0.0,0.0
19/09/2022,01:17:48,0.000,0.0,0.0,0.0
19/09/2022,01:18:48,0.000,0.0,0.0,0.0
19/09/2022,01:19:48,0.001,0.0,0.0,0.0
19/09/2022,01:20:48,0.000,0.0,0.0,0.0
19/09/2022,01:21:49,0.000,0.0,0.0,0.0
19/09/2022,01:22:48,0.001,0.0,0.0,0.0
19/09/2022,01:23:48,0.001,0.0,0.0,0.0
19/09/2022,01:24:48,0.000,0.0,0.0,0.0
19/09/2022,01:25:49,0.000,0.0,0.0,0.0
19/09/2022,01:26:56,0.001,0.0,0.0,0.0
19/09/2022,01:27:48,0.001,0.0,0.0,0.0
19/09/2022,01:28:48,0.000,0.0,0.0,0.0
19/09/2022,01:29:48,-0.000,0.0,0.0,0.0
19/09/2022,01:30:48,0.000,0.0,0.0,0.0
19/09/2022,01:31:48,-0.001,0.0,0.0,0.0
19/09/2022,01:32:48,-0.001,0.0,0.0,0.0
19/09/2022,01:33:48,0.001,0.0,0.0,0.0
19/09/2022,01:34:48,0.001,0.0,0.0,0.0
19/09/2022,01:35:49,0.000,0.0,0.0,0.0
19/09/2022,01:36:56,0.000,0.0,0.0,0.0
19/09/2022,01:37:48,0.001,0.0,0.0,0.0
19/09/2022,01:38:48,0.000,0.0,0.0,0.0
19/09/2022,01:39:56,0.000,0.0,0.0,0.0
19/09/2022,01:40:48,0.000,0.0,0.0,0.0
19/09/2022,01:41:48,0.000,0.0,0.0,0.0
19/09/2022,01:42:57,0.000,0.0,0.0,0.0
19/09/2022,01:43:48,0.001,0.0,0.0,0.0
19/09/2022,01:44:48,0.001,0.0,0.0,0.0
19/09/2022,01:45:57,0.000,0.0,0.0,0.0
19/09/2022,01:46:48,0.000,0.0,0.0,0.0
19/09/2022,01:47:49,-0.001,0.0,0.0,0.0
19/09/2022,01:48:49,-0.001,0.0,0.0,0.0
19/09/2022,01:49:48,-0.000,0.0,0.0,0.0
19/09/2022,01:50:49,0.001,0.0,0.0,0.0
19/09/2022,01:51:48,0.000,0.0,0.0,0.0
19/09/2022,01:52:56,0.000,0.0,0.0,0.0
19/09/2022,01:53:48,0.001,0.0,0.0,0.0
19/09/2022,01:54:48,0.000,0.0,0.0,0.0
19/09/2022,01:55:56,0.000,0.0,0.0,0.0
19/09/2022,01:56:49,0.000,0.0,0.0,0.0
19/09/2022,01:57:48,-0.000,0.0,0.0,0.0
19/09/2022,01:58:48,0.000,0.0,0.0,0.0
19/09/2022,01:59:48,0.000,0.0,0.0,0.0
19/09/2022,02:00:49,0.000,0.0,0.0,0.0
19/09/2022,02:01:48,-0.001,0.0,0.0,0.0
19/09/2022,02:02:48,0.000,0.0,0.0,0.0
19/09/2022,02:03:49,0.001,0.0,0.0,0.0
19/09/2022,02:04:48,0.000,0.0,0.0,0.0
19/09/2022,02:05:57,0.000,0.0,0.0,0.0
19/09/2022,02:06:48,0.001,0.0,0.0,0.0
19/09/2022,02:07:48,0.000,0.0,0.0,0.0
19/09/2022,02:08:48,-0.001,0.0,0.0,0.0
19/09/2022,02:09:48,0.001,0.0,0.0,0.0
19/09/2022,02:10:48,0.000,0.0,0.0,0.0
19/09/2022,02:11:48,0.000,0.0,0.0,0.0
19/09/2022,02:12:50,0.001,0.0,0.0,0.0
19/09/2022,02:13:48,0.000,0.0,0.0,0.0
19/09/2022,02:14:49,0.000,0.0,0.0,0.0
19/09/2022,02:15:48,0.000,0.0,0.0,0.0
19/09/2022,02:16:49,0.001,0.0,0.0,0.0
19/09/2022,02:17:56,0.000,0.0,0.0,0.0
19/09/2022,02:18:56,-0.001,0.0,0.0,0.0
19/09/2022,02:19:48,-0.001,0.0,0.0,0.0
19/09/2022,02:20:48,0.000,0.0,0.0,0.0
19/09/2022,02:21:48,0.000,0.0,0.0,0.0
19/09/2022,02:22:48,-0.001,0.0,0.0,0.0
19/09/2022,02:23:48,0.000,0.0,0.0,0.0
19/09/2022,02:24:48,0.000,0.0,0.0,0.0
19/09/2022,02:25:48,0.000,0.0,0.0,0.0
19/09/2022,02:26:48,-0.000,0.0,0.0,0.0
19/09/2022,02:27:57,-0.001,0.0,0.0,0.0
19/09/2022,02:28:48,0.000,0.0,0.0,0.0
19/09/2022,02:29:48,-0.000,0.0,0.0,0.0
19/09/2022,02:30:58,0.000,0.0,0.0,0.0
19/09/2022,02:31:47,-0.001,0.0,0.0,0.0
19/09/2022,02:32:48,0.001,0.0,0.0,0.0
19/09/2022,02:33:49,-0.001,0.0,0.0,0.0
19/09/2022,02:34:49,-0.000,0.0,0.0,0.0
19/09/2022,02:35:49,0.001,0.0,0.0,0.0
19/09/2022,02:36:48,0.000,0.0,0.0,0.0
19/09/2022,02:37:50,-0.000,0.0,0.0,0.0
19/09/2022,02:38:49,0.000,0.0,0.0,0.0
19/09/2022,02:39:48,0.000,0.0,0.0,0.0
19/09/2022,02:40:56,0.001,0.0,0.0,0.0
19/09/2022,02:41:48,0.000,0.0,0.0,0.0
19/09/2022,02:42:49,0.000,0.0,0.0,0.0
19/09/2022,02:43:48,0.000,0.0,0.0,0.0
19/09/2022,02:44:48,0.000,0.0,0.0,0.0
19/09/2022,02:45:49,0.001,0.0,0.0,0.0
19/09/2022,02:46:49,-0.000,0.0,0.0,0.0
19/09/2022,02:47:49,0.001,0.0,0.0,0.0
19/09/2022,02:48:48,0.000,0.0,0.0,0.0
19/09/2022,02:49:49,0.001,0.0,0.0,0.0
19/09/2022,02:50:48,0.000,0.0,0.0,0.0
19/09/2022,02:51:48,-0.001,0.0,0.0,0.0
19/09/2022,02:52:49,-0.001,0.0,0.0,0.0
19/09/2022,02:53:57,0.001,0.0,0.0,0.0
19/09/2022,02:54:49,0.000,0.0,0.0,0.0
19/09/2022,02:55:49,-0.000,0.0,0.0,0.0
19/09/2022,02:56:57,0.000,0.0,0.0,0.0
19/09/2022,02:57:48,-0.000,0.0,0.0,0.0
19/09/2022,02:58:48,-0.001,0.0,0.0,0.0
19/09/2022,02:59:48,0.000,0.0,0.0,0.0
19/09/2022,03:00:48,0.000,0.0,0.0,0.0
19/09/2022,03:01:48,0.000,0.0,0.0,0.0
19/09/2022,03:02:49,0.001,0.0,0.0,0.0
19/09/2022,03:03:48,0.000,0.0,0.0,0.0
19/09/2022,03:04:48,0.001,0.0,0.0,0.0
19/09/2022,03:05:48,0.001,0.0,0.0,0.0
19/09/2022,03:06:56,0.001,0.0,0.0,0.0
19/09/2022,03:07:49,0.000,0.0,0.0,0.0
19/09/2022,03:08:48,0.000,0.0,0.0,0.0
19/09/2022,03:09:48,0.001,0.0,0.0,0.0
19/09/2022,03:10:48,0.001,0.0,0.0,0.0
19/09/2022,03:11:48,0.000,0.0,0.0,0.0
19/09/2022,03:12:48,0.001,0.0,0.0,0.0
19/09/2022,03:13:48,0.000,0.0,0.0,0.0
19/09/2022,03:14:49,0.001,0.0,0.0,0.0
19/09/2022,03:15:48,0.001,0.0,0.0,0.0
19/09/2022,03:16:57,0.000,0.0,0.0,0.0
19/09/2022,03:17:48,0.000,0.0,0.0,0.0
19/09/2022,03:18:49,-0.000,0.0,0.0,0.0
19/09/2022,03:19:57,0.000,0.0,0.0,0.0
19/09/2022,03:20:48,-0.001,0.0,0.0,0.0
19/09/2022,03:21:48,-0.001,0.0,0.0,0.0
19/09/2022,03:22:49,0.000,0.0,0.0,0.0
19/09/2022,03:23:48,0.000,0.0,0.0,0.0
19/09/2022,03:24:49,0.000,0.0,0.0,0.0
19/09/2022,03:25:48,0.000,0.0,0.0,0.0
19/09/2022,03:26:49,0.001,0.0,0.0,0.0
19/09/2022,03:27:48,-0.001,0.0,0.0,0.0
19/09/2022,03:28:48,-0.000,0.0,0.0,0.0
19/09/2022,03:29:49,0.001,0.0,0.0,0.0
19/09/2022,03:30:48,0.000,0.0,0.0,0.0
19/09/2022,03:31:48,0.000,0.0,0.0,0.0
19/09/2022,03:32:56,0.000,0.0,0.0,0.0
19/09/2022,03:33:49,-0.000,0.0,0.0,0.0
19/09/2022,03:34:49,0.000,0.0,0.0,0.0
19/09/2022,03:35:48,0.000,0.0,0.0,0.0
19/09/2022,03:36:48,0.001,0.0,0.0,0.0
19/09/2022,03:37:49,0.001,0.0,0.0,0.0
19/09/2022,03:38:48,-0.000,0.0,0.0,0.0
19/09/2022,03:39:48,0.000,0.0,0.0,0.0
19/09/2022,03:40:49,0.000,0.0,0.0,0.0
19/09/2022,03:41:48,0.001,0.0,0.0,0.0
19/09/2022,03:42:50,0.001,0.0,0.0,0.0
19/09/2022,03:43:48,-0.000,0.0,0.0,0.0
19/09/2022,03:44:48,0.001,0.0,0.0,0.0
19/09/2022,03:45:49,-0.001,0.0,0.0,0.0
19/09/2022,03:46:48,0.000,0.0,0.0,0.0
19/09/2022,03:47:48,0.000,0.0,0.0,0.0
19/09/2022,03:48:49,0.000,0.0,0.0,0.0
19/09/2022,03:49:48,0.000,0.0,0.0,0.0
19/09/2022,03:50:48,-0.001,0.0,0.0,0.0
19/09/2022,03:51:57,0.000,0.0,0.0,0.0
19/09/2022,03:52:47,0.001,0.0,0.0,0.0
19/09/2022,03:53:49,0.000,0.0,0.0,0.0
19/09/2022,03:54:48,0.000,0.0,0.0,0.0
19/09/2022,03:55:48,0.001,0.0,0.0,0.0
19/09/2022,03:56:49,-0.001,0.0,0.0,0.0
19/09/2022,03:57:49,0.000,0.0,0.0,0.0
19/09/2022,03:58:49,0.000,0.0,0.0,0.0
19/09/2022,03:59:49,0.000,0.0,0.0,0.0
19/09/2022,04:00:49,0.000,0.0,0.0,0.0
19/09/2022,04:01:48,0.000,0.0,0.0,0.0
19/09/2022,04:02:48,0.000,0.0,0.0,0.0
19/09/2022,04:03:49,0.001,0.0,0.0,0.0
19/09/2022,04:04:48,0.001,0.0,0.0,0.0
19/09/2022,04:05:48,0.000,0.0,0.0,0.0
19/09/2022,04:06:49,0.000,0.0,0.0,0.0
19/09/2022,04:07:57,-0.001,0.0,0.0,0.0
19/09/2022,04:08:50,-0.001,0.0,0.0,0.0
19/09/2022,04:10:01,0.000,0.0,0.0,0.0
19/09/2022,04:11:50,0.000,0.0,0.0,0.0
19/09/2022,04:12:48,0.000,0.0,0.0,0.0
19/09/2022,04:13:49,0.000,0.0,0.0,0.0
19/09/2022,04:14:49,0.000,0.0,0.0,0.0
19/09/2022,04:15:48,-0.001,0.0,0.0,0.0
19/09/2022,04:16:48,0.000,0.0,0.0,0.0
19/09/2022,04:17:57,0.000,0.0,0.0,0.0
19/09/2022,04:18:48,0.000,0.0,0.0,0.0
19/09/2022,04:19:48,0.000,0.0,0.0,0.0
19/09/2022,04:20:49,0.001,0.0,0.0,0.0
19/09/2022,04:21:48,0.000,0.0,0.0,0.0
19/09/2022,04:22:49,-0.000,0.0,0.0,0.0
19/09/2022,04:23:48,0.001,0.0,0.0,0.0
19/09/2022,04:24:59,0.001,0.0,0.0,0.0
19/09/2022,04:25:48,0.001,0.0,0.0,0.0
19/09/2022,04:26:48,-0.001,0.0,0.0,0.0
19/09/2022,04:27:49,0.000,0.0,0.0,0.0
19/09/2022,04:28:48,0.000,0.0,0.0,0.0
19/09/2022,04:29:48,-0.000,0.0,0.0,0.0
19/09/2022,04:30:59,0.000,0.0,0.0,0.0
19/09/2022,04:32:49,0.000,0.0,0.0,0.0
19/09/2022,04:33:48,0.000,0.0,0.0,0.0
19/09/2022,04:34:49,0.000,0.0,0.0,0.0
19/09/2022,04:35:48,0.000,0.0,0.0,0.0
19/09/2022,04:36:49,-0.001,0.0,0.0,0.0
19/09/2022,04:37:48,-0.000,0.0,0.0,0.0
19/09/2022,04:38:49,0.000,0.0,0.0,0.0
19/09/2022,04:39:48,0.001,0.0,0.0,0.0
19/09/2022,04:40:57,-0.001,0.0,0.0,0.0
19/09/2022,04:41:48,0.000,0.0,0.0,0.0
19/09/2022,04:42:48,-0.000,0.0,0.0,0.0
19/09/2022,04:43:48,0.000,0.0,0.0,0.0
19/09/2022,04:44:48,0.001,0.0,0.0,0.0
19/09/2022,04:45:49,-0.000,0.0,0.0,0.0
19/09/2022,04:46:48,0.000,0.0,0.0,0.0
19/09/2022,04:47:48,0.000,0.0,0.0,0.0
19/09/2022,04:48:49,0.000,0.0,0.0,0.0
19/09/2022,04:49:48,0.000,0.0,0.0,0.0
19/09/2022,04:50:56,0.000,0.0,0.0,0.0
19/09/2022,04:51:48,0.001,0.0,0.0,0.0
19/09/2022,04:53:05,0.001,0.0,0.0,0.0
19/09/2022,04:54:49,0.000,0.0,0.0,0.0
19/09/2022,04:55:48,0.001,0.0,0.0,0.0
19/09/2022,04:56:49,0.001,0.0,0.0,0.0
19/09/2022,04:57:49,0.001,0.0,0.0,0.0
19/09/2022,04:58:50,0.001,0.0,0.0,0.0
19/09/2022,04:59:49,-0.000,0.0,0.0,0.0
19/09/2022,05:00:49,0.000,0.0,0.0,0.0
19/09/2022,05:01:48,0.000,0.0,0.0,0.0
19/09/2022,05:02:49,0.000,0.0,0.0,0.0
19/09/2022,05:03:56,0.000,0.0,0.0,0.0
19/09/2022,05:04:49,0.000,0.0,0.0,0.0
19/09/2022,05:05:49,0.000,0.0,0.0,0.0
19/09/2022,05:06:48,0.000,0.0,0.0,0.0
19/09/2022,05:07:48,0.000,0.0,0.0,0.0
19/09/2022,05:08:49,0.001,0.0,0.0,0.0
19/09/2022,05:09:48,0.000,0.0,0.0,0.0
19/09/2022,05:10:49,0.000,0.0,0.0,0.0
19/09/2022,05:11:39,-0.001,0.0,0.0,0.0
19/09/2022,05:12:49,0.000,0.0,0.0,0.0
19/09/2022,05:13:49,0.000,0.0,0.0,0.0
19/09/2022,05:14:49,0.000,0.0,0.0,0.0
19/09/2022,05:15:49,0.001,0.0,0.0,0.0
19/09/2022,05:16:57,0.000,0.0,0.0,0.0
19/09/2022,05:17:48,0.000,0.0,0.0,0.0
19/09/2022,05:18:50,-0.000,0.0,0.0,0.0
19/09/2022,05:19:49,0.000,0.0,0.0,0.0
19/09/2022,05:20:49,0.000,0.0,0.0,0.0
19/09/2022,05:21:48,0.000,0.0,0.0,0.0
19/09/2022,05:22:49,0.001,0.0,0.0,0.0
19/09/2022,05:23:48,-0.001,0.0,0.0,0.0
19/09/2022,05:24:48,-0.001,0.0,0.0,0.0
19/09/2022,05:25:49,0.000,0.0,0.0,0.0
19/09/2022,05:26:57,0.000,0.0,0.0,0.0
19/09/2022,05:27:49,0.000,0.0,0.0,0.0
19/09/2022,05:28:49,0.000,0.0,0.0,0.0
19/09/2022,05:29:48,0.001,0.0,0.0,0.0
19/09/2022,05:30:48,0.000,0.0,0.0,0.0
19/09/2022,05:31:49,-0.001,0.0,0.0,0.0
19/09/2022,05:32:48,0.001,0.0,0.0,0.0
19/09/2022,05:33:48,0.000,0.0,0.0,0.0
19/09/2022,05:34:49,0.001,0.0,0.0,0.0
19/09/2022,05:35:49,0.002,0.0,0.0,0.0
19/09/2022,05:36:48,0.001,0.0,0.0,0.0
19/09/2022,05:37:48,0.001,0.0,0.0,0.0
19/09/2022,05:38:49,0.001,0.0,0.0,0.0
19/09/2022,05:39:57,0.001,0.0,0.0,0.0
19/09/2022,05:40:48,0.001,0.0,0.0,0.0
19/09/2022,05:41:57,0.002,0.0,0.0,0.0
19/09/2022,05:42:57,0.001,0.0,0.0,0.0
19/09/2022,05:43:49,0.001,0.0,0.0,0.0
19/09/2022,05:44:51,0.001,0.0,0.0,0.0
19/09/2022,05:45:48,0.001,0.0,0.0,0.0
19/09/2022,05:46:48,0.002,0.0,0.0,0.0
19/09/2022,05:47:49,0.001,0.0,0.0,0.0
19/09/2022,05:49:01,0.001,0.0,0.0,0.0
19/09/2022,05:50:49,0.001,0.0,0.0,0.0
19/09/2022,05:51:57,0.002,0.0,0.0,0.0
19/09/2022,05:52:48,0.002,0.0,0.0,0.0
19/09/2022,05:53:48,0.002,0.0,0.0,0.0
19/09/2022,05:54:48,0.002,0.0,0.0,0.0
19/09/2022,05:55:49,0.002,0.0,0.0,0.0
19/09/2022,05:56:48,0.003,0.0,0.0,0.0
19/09/2022,05:57:48,0.003,0.0,0.0,0.0
19/09/2022,05:58:49,0.003,0.0,0.0,0.0
19/09/2022,05:59:48,0.003,0.0,0.0,0.0
19/09/2022,06:00:48,0.003,0.0,0.0,0.0
19/09/2022,06:01:57,0.003,0.0,0.0,0.0
19/09/2022,06:02:49,0.003,0.0,0.0,0.0
19/09/2022,06:03:49,0.005,0.0,0.0,0.0
19/09/2022,06:04:56,0.005,0.0,0.0,0.0
19/09/2022,06:05:49,0.004,0.0,0.0,0.0
19/09/2022,06:06:48,0.004,0.0,0.0,0.0
19/09/2022,06:07:49,0.004,0.0,0.0,0.0
19/09/2022,06:08:35,0.005,0.0,0.0,0.0
19/09/2022,06:09:49,0.005,0.0,0.0,0.0
19/09/2022,06:10:49,0.005,0.0,0.0,0.0
19/09/2022,06:11:49,0.005,0.0,0.0,0.0
19/09/2022,06:12:49,0.005,0.0,0.0,0.0
19/09/2022,06:13:49,0.005,0.0,0.0,0.0
19/09/2022,06:14:56,0.005,0.0,0.0,0.0
19/09/2022,06:15:40,0.007,0.0,0.0,0.0
19/09/2022,06:16:49,0.005,0.0,0.0,0.0
19/09/2022,06:17:48,0.006,0.0,0.0,0.0
19/09/2022,06:19:01,0.006,0.0,0.0,0.0
19/09/2022,06:20:49,0.007,0.0,0.0,0.0
19/09/2022,06:21:49,0.009,0.0,0.0,0.0
19/09/2022,06:22:48,0.009,0.0,0.001,0.001
19/09/2022,06:23:49,0.009,0.0,0.001,0.0
19/09/2022,06:24:56,0.011,0.0,0.001,0.0
19/09/2022,06:25:49,0.010,0.0,0.001,0.0
19/09/2022,06:26:49,0.010,0.0,0.001,0.0
19/09/2022,06:27:49,0.011,0.0,0.001,0.0
19/09/2022,06:28:49,0.010,0.0,0.002,0.001
19/09/2022,06:29:48,0.011,0.0,0.002,0.0
19/09/2022,06:30:57,0.011,0.0,0.002,0.0
19/09/2022,06:31:48,0.012,0.0,0.002,0.0
19/09/2022,06:32:49,0.014,0.0,0.002,0.0
19/09/2022,06:33:49,0.014,0.0,0.003,0.001
19/09/2022,06:34:57,0.015,0.0,0.003,0.0
19/09/2022,06:35:49,0.015,0.0,0.003,0.0
19/09/2022,06:36:49,0.015,0.0,0.003,0.0
19/09/2022,06:37:49,0.015,0.0,0.004,0.001
19/09/2022,06:38:48,0.015,0.0,0.004,0.0
19/09/2022,06:39:49,0.015,0.0,0.004,0.0
19/09/2022,06:40:58,0.016,0.0,0.004,0.0
19/09/2022,06:41:49,0.017,0.0,0.005,0.001
19/09/2022,06:42:49,0.017,0.0,0.005,0.0
19/09/2022,06:43:49,0.017,0.0,0.005,0.0
19/09/2022,06:44:49,0.018,0.0,0.006,0.001
19/09/2022,06:45:49,0.018,0.0,0.006,0.0
19/09/2022,06:46:49,0.018,0.0,0.006,0.0
19/09/2022,06:47:49,0.020,0.0,0.006,0.0
19/09/2022,06:48:49,0.021,0.0,0.007,0.001
19/09/2022,06:49:49,0.022,0.0,0.007,0.0
19/09/2022,06:50:57,0.021,0.0,0.008,0.001
19/09/2022,06:51:47,0.022,0.0,0.008,0.0
19/09/2022,06:52:49,0.023,0.0,0.008,0.0
19/09/2022,06:53:49,0.023,0.0,0.009,0.001
19/09/2022,06:54:49,0.025,0.0,0.009,0.0
19/09/2022,06:55:48,0.027,0.0,0.009,0.0
19/09/2022,06:56:48,0.028,0.0,0.01,0.001
19/09/2022,06:57:57,0.030,0.0,0.01,0.0
19/09/2022,06:58:49,0.031,0.0,0.011,0.001
19/09/2022,06:59:49,0.030,0.0,0.011,0.0
19/09/2022,07:00:57,0.029,0.0,0.012,0.001
19/09/2022,07:01:49,0.030,0.0,0.012,0.0
19/09/2022,07:02:48,0.031,0.0,0.013,0.001
19/09/2022,07:03:49,0.033,0.0,0.013,0.0
19/09/2022,07:04:48,0.035,0.0,0.014,0.001
19/09/2022,07:05:48,0.036,0.0,0.014,0.0
19/09/2022,07:06:49,0.039,0.0,0.015,0.001
19/09/2022,07:07:57,0.040,0.0,0.016,0.001
19/09/2022,07:08:49,0.040,0.0,0.016,0.0
19/09/2022,07:09:48,0.040,0.0,0.017,0.001
19/09/2022,07:10:57,0.041,0.0,0.018,0.001
19/09/2022,07:11:49,0.041,0.0,0.018,0.0
19/09/2022,07:12:49,0.041,0.0,0.019,0.001
19/09/2022,07:13:57,0.040,0.0,0.02,0.001
19/09/2022,07:14:35,0.039,0.0,0.02,0.0
19/09/2022,07:15:49,0.037,0.0,0.021,0.001
19/09/2022,07:16:49,0.037,0.0,0.022,0.001
19/09/2022,07:17:48,0.040,0.0,0.022,0.0
19/09/2022,07:18:49,0.041,0.0,0.023,0.001
19/09/2022,07:19:49,0.041,0.0,0.024,0.001
19/09/2022,07:20:49,0.040,0.0,0.024,0.0
19/09/2022,07:21:49,0.040,0.0,0.025,0.001
19/09/2022,07:22:50,0.040,0.0,0.026,0.001
19/09/2022,07:23:57,0.041,0.0,0.026,0.0
19/09/2022,07:24:49,0.043,0.0,0.027,0.001
19/09/2022,07:25:49,0.046,0.0,0.028,0.001
19/09/2022,07:26:49,0.050,0.0,0.029,0.001
19/09/2022,07:27:49,0.053,0.0,0.029,0.0
19/09/2022,07:28:51,0.056,0.0,0.03,0.001
19/09/2022,07:29:49,0.059,0.0,0.031,0.001
19/09/2022,07:30:49,0.060,0.0,0.032,0.001
19/09/2022,07:31:49,0.062,0.0,0.033,0.001
19/09/2022,07:32:49,0.063,0.0,0.034,0.001
19/09/2022,07:33:57,0.065,0.0,0.036,0.002
19/09/2022,07:34:48,0.065,0.0,0.037,0.001
19/09/2022,07:35:49,0.065,0.0,0.038,0.001
19/09/2022,07:36:48,0.067,0.0,0.039,0.001
19/09/2022,07:37:48,0.070,0.0,0.04,0.001
19/09/2022,07:38:49,0.073,0.0,0.041,0.001
19/09/2022,07:39:49,0.073,0.0,0.042,0.001
19/09/2022,07:40:49,0.076,0.0,0.044,0.002
19/09/2022,07:41:49,0.078,0.0,0.045,0.001
19/09/2022,07:42:48,0.081,0.0,0.046,0.001
19/09/2022,07:43:57,0.084,0.0,0.048,0.002
19/09/2022,07:44:49,0.085,0.0,0.049,0.001
19/09/2022,07:45:49,0.086,0.0,0.05,0.001
19/09/2022,07:46:58,0.090,0.0,0.052,0.002
19/09/2022,07:47:49,0.092,0.0,0.053,0.001
19/09/2022,07:48:49,0.096,0.0,0.055,0.002
19/09/2022,07:49:49,0.099,0.0,0.056,0.001
19/09/2022,07:50:49,0.103,0.0,0.058,0.002
19/09/2022,07:51:49,0.107,0.0,0.06,0.002
19/09/2022,07:52:49,0.112,0.0,0.062,0.002
19/09/2022,07:53:48,0.115,0.0,0.064,0.002
19/09/2022,07:54:48,0.117,0.0,0.066,0.002
19/09/2022,07:55:49,0.118,0.0,0.068,0.002
19/09/2022,07:56:48,0.117,0.0,0.07,0.002
19/09/2022,07:57:49,0.119,0.0,0.071,0.001
19/09/2022,07:58:49,0.120,0.0,0.073,0.002
19/09/2022,07:59:57,0.123,0.0,0.076,0.003
19/09/2022,08:00:48,0.126,0.0,0.078,0.002
19/09/2022,08:01:49,0.128,0.0,0.08,0.002
19/09/2022,08:02:49,0.125,0.0,0.082,0.002
19/09/2022,08:03:49,0.123,0.0,0.084,0.002
19/09/2022,08:04:49,0.121,0.0,0.086,0.002
19/09/2022,08:05:49,0.122,0.0,0.088,0.002
19/09/2022,08:06:48,0.128,0.0,0.09,0.002
19/09/2022,08:07:49,0.133,0.0,0.092,0.002
19/09/2022,08:08:49,0.141,0.0,0.095,0.003
19/09/2022,08:09:57,0.147,0.0,0.097,0.002
19/09/2022,08:10:48,0.148,0.0,0.099,0.002
19/09/2022,08:11:49,0.150,0.0,0.102,0.003
19/09/2022,08:12:48,0.154,0.0,0.104,0.002
19/09/2022,08:13:49,0.161,0.0,0.107,0.003
19/09/2022,08:14:49,0.169,0.0,0.11,0.003
19/09/2022,08:15:49,0.174,0.0,0.113,0.003
19/09/2022,08:16:49,0.180,0.0,0.116,0.003
19/09/2022,08:17:49,0.186,0.0,0.119,0.003
19/09/2022,08:18:49,0.191,0.0,0.122,0.003
19/09/2022,08:19:49,0.194,0.0,0.125,0.003
19/09/2022,08:20:57,0.195,0.0,0.129,0.004
19/09/2022,08:21:49,0.198,0.0,0.131,0.002
19/09/2022,08:22:49,0.206,0.0,0.135,0.004
19/09/2022,08:23:49,0.214,0.0,0.138,0.003
19/09/2022,08:24:49,0.219,1.0,0.142,0.004
19/09/2022,08:25:49,0.224,1.0,0.146,0.004
19/09/2022,08:26:48,0.229,1.0,0.149,0.003
19/09/2022,08:27:49,0.237,1.0,0.153,0.004
19/09/2022,08:28:57,0.244,1.0,0.158,0.005
19/09/2022,08:29:49,0.250,1.0,0.161,0.003
19/09/2022,08:30:49,0.252,1.0,0.166,0.005
19/09/2022,08:31:49,0.251,1.0,0.17,0.004
19/09/2022,08:32:49,0.248,1.0,0.174,0.004
19/09/2022,08:33:51,0.247,1.0,0.178,0.004
19/09/2022,08:34:49,0.244,1.0,0.182,0.004
19/09/2022,08:35:49,0.239,1.0,0.186,0.004
19/09/2022,08:36:49,0.233,1.0,0.19,0.004
19/09/2022,08:37:48,0.230,1.0,0.194,0.004
19/09/2022,08:38:49,0.233,1.0,0.198,0.004
19/09/2022,08:39:49,0.239,1.0,0.202,0.004
19/09/2022,08:40:49,0.250,1.0,0.206,0.004
19/09/2022,08:41:49,0.261,1.0,0.21,0.004
19/09/2022,08:42:49,0.274,1.0,0.215,0.005
19/09/2022,08:43:48,0.284,1.0,0.219,0.004
19/09/2022,08:44:49,0.293,1.0,0.224,0.005
19/09/2022,08:45:49,0.301,1.0,0.229,0.005
19/09/2022,08:46:49,0.306,1.0,0.234,0.005
19/09/2022,08:47:49,0.308,1.0,0.239,0.005
19/09/2022,08:48:49,0.311,1.0,0.244,0.005
19/09/2022,08:49:49,0.312,1.0,0.25,0.006
19/09/2022,08:50:49,0.311,1.0,0.255,0.005
19/09/2022,08:51:49,0.308,1.0,0.26,0.005
19/09/2022,08:52:49,0.306,1.0,0.265,0.005
19/09/2022,08:53:49,0.306,1.0,0.27,0.005
19/09/2022,08:55:05,0.311,1.0,0.277,0.007
19/09/2022,08:56:50,0.324,1.0,0.286,0.009
19/09/2022,08:57:49,0.330,1.0,0.291,0.005
19/09/2022,08:58:49,0.332,1.0,0.297,0.006
19/09/2022,08:59:49,0.339,1.0,0.302,0.005
19/09/2022,09:00:49,0.348,1.0,0.308,0.006
19/09/2022,09:01:49,0.358,1.0,0.314,0.006
19/09/2022,09:02:57,0.370,1.0,0.321,0.007
19/09/2022,09:03:49,0.377,1.0,0.326,0.005
19/09/2022,09:04:49,0.382,1.0,0.333,0.007
19/09/2022,09:05:48,0.387,1.0,0.339,0.006
19/09/2022,09:06:49,0.389,1.0,0.345,0.006
19/09/2022,09:07:49,0.393,1.0,0.352,0.007
19/09/2022,09:08:49,0.402,1.0,0.359,0.007
19/09/2022,09:09:49,0.409,1.0,0.365,0.006
19/09/2022,09:10:49,0.415,1.0,0.372,0.007
19/09/2022,09:11:49,0.421,1.0,0.379,0.007
19/09/2022,09:12:57,0.430,1.0,0.387,0.008
19/09/2022,09:13:49,0.437,1.0,0.393,0.006
19/09/2022,09:14:49,0.447,1.0,0.401,0.008
19/09/2022,09:15:49,0.455,1.0,0.408,0.007
19/09/2022,09:16:48,0.462,1.0,0.416,0.008
19/09/2022,09:17:49,0.466,1.0,0.424,0.008
19/09/2022,09:18:49,0.470,1.0,0.431,0.007
19/09/2022,09:19:49,0.473,1.0,0.439,0.008
19/09/2022,09:20:49,0.476,1.0,0.447,0.008
19/09/2022,09:21:49,0.481,1.0,0.455,0.008
19/09/2022,09:22:49,0.485,1.0,0.463,0.008
19/09/2022,09:23:49,0.487,1.0,0.471,0.008
19/09/2022,09:24:49,0.490,1.0,0.479,0.008
19/09/2022,09:25:57,0.492,1.0,0.489,0.01
19/09/2022,09:26:49,0.495,1.0,0.496,0.007
19/09/2022,09:27:49,0.499,1.0,0.504,0.008
19/09/2022,09:28:49,0.502,1.0,0.513,0.009
19/09/2022,09:29:49,0.505,1.0,0.521,0.008
19/09/2022,09:30:49,0.509,1.0,0.529,0.008
19/09/2022,09:31:49,0.513,1.0,0.538,0.009
19/09/2022,09:32:56,0.517,1.0,0.548,0.01
19/09/2022,09:33:49,0.519,1.0,0.555,0.007
19/09/2022,09:34:49,0.525,1.0,0.564,0.009
19/09/2022,09:35:49,0.529,1.0,0.573,0.009
19/09/2022,09:36:49,0.534,1.0,0.581,0.008
19/09/2022,09:37:49,0.538,1.0,0.591,0.01
19/09/2022,09:38:49,0.542,1.0,0.599,0.008
19/09/2022,09:39:49,0.544,1.0,0.609,0.01
19/09/2022,09:40:49,0.548,1.0,0.618,0.009
19/09/2022,09:41:57,0.555,1.0,0.628,0.01
19/09/2022,09:42:49,0.559,1.0,0.636,0.008
19/09/2022,09:43:49,0.567,1.0,0.645,0.009
19/09/2022,09:44:58,0.574,1.0,0.656,0.011
19/09/2022,09:45:58,0.579,1.0,0.666,0.01
19/09/2022,09:46:49,0.590,1.0,0.674,0.008
19/09/2022,09:47:49,0.585,1.0,0.684,0.01
19/09/2022,09:48:49,0.591,1.0,0.694,0.01
19/09/2022,09:49:49,0.598,1.0,0.704,0.01
19/09/2022,09:50:49,0.601,1.0,0.714,0.01
19/09/2022,09:51:49,0.604,1.0,0.724,0.01
19/09/2022,09:52:49,0.603,1.0,0.734,0.01
19/09/2022,09:53:49,0.602,1.0,0.744,0.01
19/09/2022,09:54:49,0.601,1.0,0.754,0.01
19/09/2022,09:55:49,0.601,1.0,0.764,0.01
19/09/2022,09:56:49,0.603,1.0,0.774,0.01
19/09/2022,09:57:49,0.607,1.0,0.784,0.01
19/09/2022,09:58:49,0.611,1.0,0.794,0.01
19/09/2022,09:59:49,0.617,1.0,0.804,0.01
19/09/2022,10:00:49,0.618,1.0,0.815,0.011
19/09/2022,10:01:49,0.624,1.0,0.825,0.01
19/09/2022,10:02:49,0.630,1.0,0.835,0.01
19/09/2022,10:03:49,0.643,1.0,0.846,0.011
19/09/2022,10:04:49,0.654,2.0,0.857,0.011
19/09/2022,10:06:09,0.660,2.0,0.872,0.015
19/09/2022,10:07:49,0.663,2.0,0.89,0.018
19/09/2022,10:08:49,0.655,2.0,0.901,0.011
19/09/2022,10:09:49,0.655,2.0,0.912,0.011
19/09/2022,10:10:49,0.651,1.0,0.923,0.011
19/09/2022,10:11:50,0.654,2.0,0.934,0.011
19/09/2022,10:12:51,0.669,2.0,0.945,0.011